sat.trackr.live / text

‹ back to catalog

GCOM-W1 (SHIZUKU)

NORAD 38337 · 2012-025A

PAYLOAD ACTIVE UNKNOWN

§ Identity

Operator
Country
JPN
Launch date
2012-05-17
Launch site
TANSC
Launch vehicle
Mass (kg)
RCS (m²)
6.24

Purposes: science

External: N2YO · Heavens-Above · Gunter

§ Orbital elements

Epoch: 2026-09-14T07:43:44.979168Z

Period
98.82 min
Inclination
98.2066°
Eccentricity
0.0001495
Mean motion
14.57133635 rev/d
Perigee alt
701.4 km
Apogee alt
703.5 km
Semi-major
7,080.6 km
B*
8.2928e-5
RAAN
196.5411°
Arg perigee
86.8251°
Mean anomaly
74.4441°
Rev number
76,201

§ Raw data

GCOM-W1 (SHIZUKU)1 38337U 12025A   26257.32204837  .00000329  00000+0  82928-4 0  99912 38337  98.2066 196.5411 0001495  86.8251  74.4441 14.57133635762011

JSON: /api/v1/satellites/38337 · /tle

For live sub-satellite position, see the globe view (requires WebGL).

§ Visibility from observer

Set your observer location to see the next 7 days of passes ≥ 10°. The values pass through the URL so the page stays shareable.

No JS? Fill the form by hand. The geolocation button needs JavaScript.

§ Radio — SatNOGS DB

ModeDescriptionDownlinkUplink
FM S-band telemetry 2.220 GHz

1 transmitter · refreshed weekly from db.satnogs.org